Regional Weather Roundup
Issued by NWS

Home | Current Version | Previous Version | Text Only | Print | Product List | Glossary On
Versions: 1 2 3 4 5 6 7 8 9 10 11 12 13 14 15 16 17 18 19 20 21 22 23 24 25 26 27 28 29 30 31 32 33 34 35 36 37 38 39 40 41 42 43 44 45 46 47 48 49 50
000
ASUS43 KFSD 040102
RWRSD

WEATHER ROUNDUP FOR SOUTH DAKOTA
NATIONAL WEATHER SERVICE SIOUX FALLS SD
700 PM CST TUE MAR 03 2015

NOTE: "FAIR" INDICATES FEW OR NO CLOUDS BELOW 12,000 FEET WITH NO
SIGNIFICANT WEATHER AND/OR OBSTRUCTIONS TO VISIBILITY.


SDZ001>005-009-010-012>017-040200-
NORTHWEST AND NORTH CENTRAL SOUTH DAKOTA

CITY           SKY/WX    TMP DP  RH WIND       PRES   REMARKS
BUFFALO          N/A     11  -6  46 NW17      29.89R WCI  -6
FAITH            N/A     12  -4  48 NW13      29.99R WCI  -3
MOBRIDGE       CLEAR     14  -1  51 NW13      29.99R WCI   0
$$

SDZ012>016-024>037-041>051-057-063-072>074-040200-
SOUTHWEST AND SOUTH CENTRAL SOUTH DAKOTA

CITY           SKY/WX    TMP DP  RH WIND       PRES   REMARKS
RAPID CTY ARPT PTCLDY    11   0  61 N18       29.97R WCI  -7
PIERRE         CLEAR     16   0  49 NW17      30.03R WCI   0
CUSTER         PTCLDY     7  -6  55 VRB5      29.80R WCI  -2
ELLSWORTH AFB  CLEAR     12  -1  55 N21G26    29.95R WCI  -6
PHILIP         MOCLDY    14   2  58 NW12      30.03R WCI   0
PINE RIDGE     LGT SNOW  14   8  77 NE5       29.99R WCI   6
SPEARFISH      FAIR       9  -2  61 MISG      29.94R
WINNER         MOCLDY    16   0  49 W10       30.03R WCI   4
$$

SDZ004>011-016>023-039-040-040200-
NORTHEAST SOUTH DAKOTA

CITY           SKY/WX    TMP DP  RH WIND       PRES   REMARKS
ABERDEEN       CLEAR     10  -1  61 N14       30.05R WCI  -6
WATERTOWN      CLEAR      8  -1  66 NW13      29.98R WCI  -8
SISSETON         N/A      8  -1  66 N25       30.01R WCI -13
$$

SDZ017-020-022-023-036>040-048>070-040200-
SOUTHEAST SOUTH DAKOTA

CITY           SKY/WX    TMP DP  RH WIND       PRES   REMARKS
SIOUX FALLS    PTCLDY    12   3  67 MISG      30.02S
HURON          PTCLDY    11   2  67 NW3       30.05R
MITCHELL       CLEAR     11   3  70 N7        30.07R WCI   0
YANKTON        CLEAR     16   3  57 NW14      30.07R WCI   1
$$

ABBREVIATIONS USED IN REMARKS
   TC - TEMPERATURE IN CELSIUS
  WCI - WIND CHILL INDEX
   HX - HEAT INDEX
  VSB - VISIBILITY




USA.gov is the U.S. government's official web portal to all federal, state and local government web resources and services.